Preview of NWS' New Version of Forecast
This preview is not operational and should not be used for support decisions.

Regional Weather Roundup (RWR)

Issued by National Weather Service (NWS)

                            
000
ASUS44 KJAN 200210
RWRMS 

MISSISSIPPI HOURLY WEATHER ROUNDUP
NATIONAL WEATHER SERVICE JACKSON MS
900 PM CDT FRI APR 19 2019

NOTE: "FAIR: INDICATES FEW OR NO CLOUDS BELOW 12,000 FEET WITH NO
SIGNIFICANT WEATHER AND/OR OBSTRUCTIONS TO VISIBILITY.

MSZ001>002-007>008-010>013-018>021-025>028-034>036-200300-
NORTHWEST MISSISSIPPI
  
CITY           SKY/WX    TMP DP  RH WIND       PRES   REMARKS
BATESVILLE       N/A     46  45  93 SW5       29.83S                  
CLARKSDALE     CLOUDY    50  48  93 CALM      29.85R                  
CLEVELAND      DRIZZLE   51  42  70 CALM      29.87R                  
GREENWOOD      CLOUDY    51  41  68 N3        29.86S                  
GREENVILLE     CLOUDY    52  43  71 E3        29.87R                  
OLIVE BRANCH   CLOUDY    43  45 100 SW3       29.80S                  
OXFORD         DRIZZLE   45  43  93 W5        29.84R                  
TUNICA           N/A     46  45  93 SW3       29.84S                  
WINONA         DRIZZLE   46  43  91 CALM      29.85F                  
$$

MSZ003>006-009-014>017-022>024-029>033-037>039-200300-
NORTHEAST MISSISSIPPI
  
CITY           SKY/WX    TMP DP  RH WIND       PRES   REMARKS
ABERDEEN       DRIZZLE   45  45 100 W9        29.80R                  
COLUMBUS AFB   CLOUDY    46  43  87 W14       29.80R                  
CORINTH        LGT RAIN  45  43  93 NW10G18   29.75R                  
GOLDN TRIANGLE FAIR      46  42  86 W13       29.81S                  
STARKVILLE     CLOUDY    45  43  93 W5        29.84R                  
TUPELO         LGT RAIN  46  42  86 NW9G17    29.78R                  
$$

MSZ040-058-200300-
CENTRAL MISSISSIPPI
  
CITY           SKY/WX    TMP DP  RH WIND       PRES   REMARKS
JACKSON INTL   LGT RAIN  52  42  69 NW8       29.90R                  
JACKSON HAWKNS CLOUDY    50  46  86 NW5       29.91R                  
MADISON        FAIR      50  45  81 NW3       29.90R                  
MERIDIAN KEY   CLOUDY    51  41  68 W8        29.85R                  
MERIDIAN NAS   CLOUDY    51  42  71 NW15      29.84R                  
RAYMOND        FAIR      52  46  82 CALM      29.90R                  
VICKSBURG VKS  CLOUDY    55  45  67 N3        29.92R                  
$$

MSZ059>079-200300-
SOUTH MISSISSIPPI
  
CITY           SKY/WX    TMP DP  RH WIND       PRES   REMARKS
HATTIESBURG    MOCLDY    52  45  77 W7        29.90R                  
LAUREL         CLOUDY    52  43  72 NW10      29.88R                  
MCCOMB         CLOUDY    52  46  80 CALM      29.92R                  
NATCHEZ        CLOUDY    52  50  93 CALM      29.93R                  
PINE BELT      CLOUDY    51  46  83 VRB6      29.90R                  
$$

MSZ080>082-200300-
COASTAL MISSISSIPPI
  
CITY           SKY/WX    TMP DP  RH WIND       PRES   REMARKS
BAY ST LOUIS   PTCLDY    52  46  82 NW7       29.92R                  
BILOXI         MOCLDY    55  47  74 NW9       29.89R                  
PASCAGOULA     FAIR      55  46  71 W5        29.88R                  
GULFPORT       FAIR      54  47  77 NW10      29.90R                  
$$

LAZ007>009-015>016-023>026-200300-
NORTHEAST LOUISIANA
  
CITY           SKY/WX    TMP DP  RH WIND       PRES   REMARKS
BASTROP        FAIR      48  47  98 CALM      29.90R                  
TALLULAH/VBURG CLOUDY    56  46  69 CALM      29.91R                  
VIDALIA        MOCLDY    56  52  86 SW3       29.92R                  
$$